Weather History for KBGD - November, 2012

Change the Weather History Date:

Monday, November 12, 2012

  Actual Average Record
Temperature  
Mean Temperature 40 °F 50 °F  
Max Temperature 53 °F 63 °F 83 °F (1973)
Min Temperature 26 °F 37 °F 15 °F (2014)
Degree Days  
Heating Degree Days 25 15  
Month to date heating degree days 85 155  
Since 1 July heating degree days 296 376  
Cooling Degree Days 0 0  
Month to date cooling degree days 13 0  
Year to date cooling degree days 2524 1835  
Moisture  
Dew Point 7 °F    
Average Humidity 37    
Maximum Humidity 63    
Minimum Humidity 11    
Precipitation  
Precipitation 0.00 in 0.03 in 1.23 in (2010)
Month to date precipitation T 0.40  
Year to date precipitation 15.62 20.51  
Snow  
Snow 0.00 in - 3.00 in (2010)
Month to date snowfall 0.0  
Since 1 July snowfall 0.0  
Since 1 September snowfall 0.0  
Snow Depth 0.00 in    
Sea Level Pressure  
Sea Level Pressure 30.41 in    
Wind  
Wind Speed 6 mph (SSW)    
Max Wind Speed 16 mph    
Max Gust Speed 23 mph    
Visibility 10 miles    
Events      
T = Trace of Precipitation, MM = Missing Value Source: NWS Daily Summary

Daily Weather History Graph

Daily Weather History Graph

Search for Another Location

Airport or City:

Trip Planner

Search our weather history database for the weather conditions in past years. The results will help you decide how hot, cold, wet, or windy it might be!

Date:

Astronomy

Nov. 12, 2012 Rise Set
Actual Time 7:18 AM CST 5:40 PM CST
Civil Twilight 6:51 AM CST 6:07 PM CST
Nautical Twilight 6:21 AM CST 6:37 PM CST
Astronomical Twilight 5:51 AM CST 7:08 PM CST
Moon 5:48 AM CST (11/12) 4:46 PM CST (11/12)
Length of Visible Light 11h 15m
Length of Day
10h 21m
Waning Crescent, 2% of the Moon is Illuminated
Nov 12
Waning Crescent
Nov 13
New
Nov 20
First Quarter
Nov 28
Full
Dec 6
Last Quarter

Hourly Weather History & Observations

Time (CST) Temp. Windchill Dew Point Humidity Pressure Visibility Wind Dir Wind Speed Gust Speed Precip Events Conditions
12:51 AM 32.0 °F - 14.0 °F 48% 30.34 in 10.0 mi Calm Calm - N/A   Clear
3:51 AM 28.9 °F 22.8 °F 14.0 °F 54% 30.39 in 10.0 mi West 5.8 mph - N/A   Clear
6:51 AM 27.0 °F 19.5 °F 16.0 °F 63% 30.43 in 10.0 mi West 6.9 mph - N/A   Clear
7:51 AM 27.0 °F 23.0 °F 16.0 °F 63% 30.46 in 10.0 mi West 3.5 mph - N/A   Clear
8:51 AM 33.1 °F 28.7 °F 18.0 °F 54% 30.46 in 10.0 mi West 4.6 mph - N/A   Clear
9:51 AM 39.0 °F 35.7 °F 18.0 °F 43% 30.46 in 10.0 mi WSW 4.6 mph - N/A   Clear
11:51 AM 48.0 °F - 1.9 °F 15% 30.45 in 10.0 mi Variable 4.6 mph - N/A   Clear
12:51 PM 48.9 °F - 1.0 °F 14% 30.43 in 10.0 mi West 9.2 mph - N/A   Clear
1:51 PM 51.1 °F - 3.9 °F 15% 30.40 in 10.0 mi Calm Calm - N/A   Clear
2:51 PM 53.1 °F - 1.9 °F 12% 30.38 in 10.0 mi Variable 3.5 mph - N/A   Clear
3:51 PM 53.1 °F - -0.0 °F 11% 30.39 in 10.0 mi SSW 6.9 mph - N/A   Clear
4:51 PM 52.0 °F - -2.0 °F 11% 30.38 in 10.0 mi South 5.8 mph - N/A   Clear
5:51 PM 48.0 °F - -2.9 °F 12% 30.39 in 10.0 mi South 3.5 mph - N/A   Clear
6:51 PM 48.0 °F - -2.9 °F 12% 30.40 in 10.0 mi SE 4.6 mph - N/A   Clear
7:51 PM 46.0 °F 43.9 °F -2.0 °F 14% 30.41 in 10.0 mi SSE 4.6 mph - N/A   Clear
8:51 PM 43.0 °F 37.7 °F 5.0 °F 21% 30.42 in 10.0 mi South 9.2 mph - N/A   Clear
9:51 PM 42.1 °F 35.2 °F 10.9 °F 28% 30.42 in 10.0 mi South 12.7 mph - N/A   Clear
10:51 PM 42.1 °F 34.5 °F 14.0 °F 32% 30.41 in 10.0 mi South 15.0 mph - N/A   Clear
11:51 PM 39.9 °F 32.9 °F 14.0 °F 35% 30.40 in 10.0 mi South 11.5 mph - N/A   Clear